Погода в Плайя Эрмоса

Коста-Рика     10°34′13″N   85°40′36″W
темп.,
°C
ветер,
м/с
пор.,
м/с
влажн.,
%
обл.,
%
осадки,
мм/ч
давл.,
гПа
погр.,
м
9 августа, вт
вт900:00+24в238481 0.0 1010134
03:00+25в2284100 0.0 100993
06:00+24вюв238545 0.0 1010119
09:00+27всв237770 0.0 1011394
12:00+28зсз327659 0.8 1010553
15:00+28зюз558127 2.3 1008289
18:00+27ююз338257 4.3 100971
21:00+26в3486100 0.9 101197
10 августа, ср
ср1000:00+25в338544 1.0 1011117
03:00+25в228472 0.0 1009108
06:00+24в2385100 0.0 1010130
09:00+27всв3476100 0.0 1012487
12:00+29св1472100 0.8 1011540
15:00+29вюв2474100 5.9 1009479
18:00+27юв2482100 9.3 1010151
21:00+26вюв5787100 0.1 1012222
11 августа, чт
чт1100:00+25вюв348890 0.2 1012121
03:00+25вюв228894 0.1 1011121
06:00+25всв2286100 0.1 1011138
09:00+27ссв117973 0.1 1012324
12:00+28з227232 0.3 1011656
15:00+29ссз2368100 0.4 1009683
18:00+26в4577100 0.5 1010308
21:00+26в487870 0.0 1012352
12 августа, пт
пт1200:00+25в4683100 0.0 1012213
03:00+24вюв3488100 0.5 1011165
06:00+24в4687100 1.1 1012258
09:00+24в3385100 0.8 1014222
12:00+24вюв2385100 1.1 1014256
15:00+24всв1188100 0.4 1012196
18:00+24всв2288100 0.6 1012220
21:00+24юв1185100 0.1 1013155
13 августа, сб
сб1300:00+24вюв2285100 0.1 1013167
03:00+24юв2286100 0.0 1012172
06:00+24всв2386100 0.0 1012170
09:00+26всв117874 0.0 1013322
12:00+27зюз2277100 0.8 1013557
15:00+26юз3381100 1.1 1011423
18:00+25юз1284100 3.5 1011137
21:00+25ююв2285100 2.5 1013156